Theta_e
319 316 312 307 293 290 287 293 301 310 313 316 323 322 321 323 320 311 338 338 339 341 344 345 345 347 347 348 349 348 347 346 344 343 343 342 340 338 339 338 338 338 335 334 335 335 335 334 334
312 311 307 302 288 283 288 302 310 312 315 318 318 318 320 320 331 333 332 338 337 341 342 343 345 346 346 347 347 346 345 343 343 342 341 340 338 337 339 339 338 339 336 336 336 335 335 334 334
317 318 301 291 287 285 289 303 313 316 317 315 313 315 316 323 333 334 338 338 339 338 341 343 344 344 345 346 346 345 344 343 342 340 339 338 336 336 337 339 338 338 336 335 335 335 334 334 336
311 302 296 288 287 293 296 305 314 315 316 316 313 309 315 326 331 338 340 337 336 340 341 340 341 342 344 344 345 344 342 340 339 338 337 335 335 336 336 338 337 335 335 334 335 334 334 336 335
306 299 287 286 290 297 303 315 315 313 315 314 316 309 313 328 338 338 338 339 337 336 337 337 338 340 342 343 344 342 341 340 338 337 336 336 336 335 336 337 337 335 334 334 334 334 336 335 335
299 296 287 285 291 298 309 314 314 313 314 314 314 312 315 333 333 335 336 335 336 335 336 338 340 340 339 340 341 340 339 339 337 337 337 336 337 337 338 338 338 337 336 337 336 336 335 335 335
295 291 289 291 293 301 311 314 311 311 310 311 316 313 318 326 330 334 334 336 336 334 332 335 338 335 338 337 337 337 338 337 335 336 336 336 336 337 338 338 338 337 336 335 335 334 333 334 333
299 294 292 293 294 301 311 313 315 312 310 318 315 308 312 325 330 331 330 330 333 330 330 332 335 336 336 336 335 335 335 334 333 334 333 333 334 336 336 335 336 335 333 333 334 332 331 331 331
301 290 288 298 302 303 311 308 311 317 315 316 317 314 326 325 328 325 324 327 327 329 328 331 331 334 333 334 335 335 335 333 333 333 332 330 328 329 332 332 334 333 331 331 332 331 330 330 328
296 290 292 307 310 308 310 309 310 311 311 313 313 321 328 328 325 321 319 320 324 325 327 326 331 333 334 334 331 329 330 329 327 327 328 327 327 326 329 331 332 333 331 331 330 330 330 327 315
296 293 301 306 307 310 308 310 314 309 307 313 311 315 324 327 323 321 320 322 323 328 330 329 332 334 331 329 329 326 325 326 328 327 327 328 329 328 327 325 325 325 328 324 324 319 317 313 312
295 300 301 307 308 309 308 311 311 307 309 317 318 322 321 324 322 319 322 323 324 328 330 331 333 333 327 330 327 323 324 328 328 328 329 329 326 324 322 321 321 320 321 316 315 315 313 310 310
299 300 303 309 309 309 312 308 306 307 311 316 320 324 323 324 325 321 323 327 329 329 330 328 326 325 323 325 329 328 328 329 331 330 330 328 324 321 321 319 318 315 313 312 311 311 309 308 309
302 301 299 301 306 308 306 306 309 306 312 313 318 319 324 323 323 324 325 325 326 325 324 324 324 325 329 325 325 322 324 324 327 329 328 326 324 322 317 314 314 311 311 310 309 307 306 306 306
303 297 298 302 305 305 307 302 304 310 313 312 313 319 322 320 319 322 324 322 322 324 324 322 324 327 325 324 323 320 322 324 324 320 320 320 318 315 312 313 311 309 309 307 307 306 307 306 307
298 298 291 301 304 307 304 295 308 313 314 310 311 313 317 316 317 319 322 322 323 322 321 322 331 326 323 320 319 321 321 317 317 315 314 314 314 313 312 310 309 309 309 308 307 306 305 305 304
296 290 296 298 304 301 299 296 308 311 311 308 309 310 311 312 315 318 323 322 322 321 321 326 325 321 319 320 322 320 314 313 313 313 311 311 312 312 311 310 309 308 307 307 307 305 304 303 302
290 293 293 295 298 299 293 295 306 308 308 309 309 309 310 310 312 316 320 322 323 323 324 326 323 321 322 322 318 317 313 312 311 309 310 310 310 310 309 309 308 308 306 305 304 303 303 303 300
298 295 295 296 300 295 295 296 301 304 306 307 309 314 312 310 312 315 320 322 322 323 326 325 323 321 323 318 315 312 310 308 308 309 309 309 309 309 307 306 305 305 303 303 303 302 299 298 298
298 295 294 297 297 294 294 295 299 304 305 306 310 312 314 311 313 314 316 321 322 322 325 324 324 322 324 320 314 313 311 308 308 308 308 309 308 307 307 304 303 303 302 301 300 298 297 297 296
297 297 294 294 295 295 296 295 299 303 306 309 311 311 314 313 313 315 316 321 321 321 323 324 323 322 322 318 314 310 309 308 307 306 306 306 302 299 298 299 298 297 298 299 298 298 297 294 295
294 301 300 298 295 288 294 285 296 301 301 304 308 310 312 313 316 317 316 318 321 323 325 326 324 318 316 313 310 308 305 304 304 302 299 297 298 298 297 298 297 296 297 295 297 300 297 295 291
296 301 299 299 294 295 294 290 293 298 298 302 303 306 307 314 316 315 316 320 322 326 325 324 317 314 312 310 309 307 305 301 298 297 296 295 296 297 298 298 296 297 297 297 297 296 295 294 292
303 299 298 297 293 286 294 291 292 295 299 303 306 308 310 313 314 317 319 322 323 324 319 315 312 310 309 308 305 301 299 296 295 294 294 294 295 296 297 297 297 297 297 297 296 295 295 293 292
301 295 286 284 284 283 296 294 294 300 303 304 306 306 308 312 315 317 318 318 320 315 311 310 309 308 306 301 299 298 296 295 294 294 293 293 293 294 293 295 295 296 298 297 296 295 294 293 292
297 294 287 281 281 287 295 290 294 303 306 308 308 306 308 312 314 317 319 320 315 311 310 307 308 306 303 300 299 297 297 296 295 295 294 294 293 293 293 294 295 296 298 296 296 294 294 294 292
297 291 296 291 292 287 291 294 300 303 303 305 305 304 308 312 314 319 319 316 312 311 307 305 307 305 302 299 298 297 297 297 296 295 295 294 294 295 293 293 294 294 296 296 296 294 293 292 290
298 299 289 290 281 280 285 288 290 297 299 304 303 305 309 311 312 312 312 311 311 309 308 306 305 302 300 299 298 297 297 297 296 295 294 295 295 293 293 293 293 293 293 293 295 293 292 291 292
295 292 293 293 288 281 280 285 294 296 298 301 305 309 310 310 309 308 309 310 310 309 308 306 304 300 298 299 298 297 297 298 297 295 295 295 293 295 293 293 293 293 292 292 290 290 290 290 289
298 296 295 283 285 285 283 286 298 297 298 300 302 309 310 311 309 307 307 308 308 308 308 307 302 300 299 299 298 297 298 298 297 297 295 295 293 293 293 293 293 294 293 292 292 291 290 289 289
Wind_Speed
4 4 1 3 3 3 5 9 5 1 4 3 12 12 14 7 5 6 11 18 21 20 12 14 19 18 18 18 18 19 19 20 20 20 19 19 20 18 16 15 15 16 18 18 17 17 16 16 15
3 4 1 2 3 1 6 7 9 6 5 8 12 11 9 5 7 12 11 14 19 17 14 13 19 18 18 18 19 19 20 20 19 19 19 19 18 17 16 15 15 16 17 17 17 17 16 15 15
1 3 2 5 4 5 7 1 10 10 8 6 5 8 6 3 11 12 16 18 16 14 12 13 17 18 18 17 18 19 19 19 18 18 18 19 18 18 18 16 16 16 16 15 15 15 13 12 12
2 3 4 1 10 16 16 6 7 8 7 11 4 6 5 7 4 8 17 14 17 16 13 14 17 17 18 20 19 18 19 18 17 17 17 17 18 19 18 16 16 16 15 14 13 11 10 10 12
2 1 2 3 10 13 3 13 2 8 5 3 5 5 5 6 14 13 17 12 16 15 10 10 14 18 19 18 18 17 18 17 17 17 16 15 17 17 16 15 15 14 13 11 10 9 8 9 11
3 2 1 6 13 15 6 7 5 2 5 2 6 8 6 12 16 13 16 16 15 16 12 10 18 20 20 14 16 14 14 16 16 16 15 14 14 13 14 13 13 11 9 7 7 5 6 8 10
5 2 8 11 14 9 5 3 4 2 4 3 3 6 6 15 14 17 16 16 15 14 12 5 8 16 16 13 13 13 14 15 14 14 14 13 12 12 12 11 11 9 7 6 4 3 4 6 8
5 3 8 9 12 5 5 2 2 6 4 6 3 4 6 7 15 18 17 14 16 14 8 6 5 11 6 7 10 12 13 13 13 13 12 12 11 11 10 10 9 7 6 3 1 3 6 6 8
1 2 5 6 5 3 7 2 5 8 11 8 8 4 14 14 18 20 17 15 13 13 8 4 6 8 8 7 8 12 13 13 12 11 11 7 4 5 7 6 8 7 6 3 2 4 6 6 7
5 3 4 3 5 5 3 5 4 3 12 7 7 10 20 14 14 20 15 14 18 17 14 13 11 7 8 8 6 5 6 4 5 5 6 4 4 3 4 4 3 2 2 4 5 5 5 6 4
6 7 6 5 4 6 5 8 3 3 4 15 15 15 6 11 17 15 12 12 16 14 14 17 11 10 7 7 5 3 3 3 3 6 5 4 4 6 5 4 3 2 3 4 4 6 5 7 5
4 10 10 6 7 5 7 4 9 4 4 15 19 15 8 12 22 19 15 13 12 12 13 11 11 9 6 5 4 4 4 3 3 5 6 6 4 5 4 3 3 4 4 5 5 4 5 6 6
8 7 6 9 12 9 8 11 10 6 7 13 11 7 12 14 13 21 17 13 14 14 13 9 10 8 6 6 5 4 4 4 5 5 6 5 5 5 4 5 4 5 4 5 5 4 5 5 7
7 7 4 5 11 4 11 7 7 1 7 6 8 7 15 17 18 18 19 16 13 11 11 8 8 7 8 8 7 5 4 5 5 5 5 8 5 5 5 4 4 4 4 3 4 4 4 4 4
4 3 1 4 5 2 6 5 5 8 9 8 11 15 14 15 19 18 17 17 13 12 12 9 8 8 10 8 7 5 5 6 7 6 7 7 6 5 5 4 4 3 2 4 4 5 4 4 5
4 5 2 5 5 7 8 6 9 11 13 9 11 8 14 8 14 14 18 16 16 14 12 8 9 7 8 8 5 4 6 5 5 5 5 7 6 5 4 5 3 3 4 4 5 4 3 3 4
3 3 5 3 14 3 4 7 12 11 12 10 10 9 10 8 13 13 18 18 16 14 11 10 9 9 8 8 5 6 7 5 5 4 4 6 7 7 5 4 3 4 4 4 2 2 2 2 3
5 8 3 7 6 4 6 6 12 8 11 7 4 7 9 9 9 13 16 17 16 15 10 12 8 8 7 6 5 5 4 4 4 5 5 6 5 6 6 4 4 4 3 4 3 4 3 1 1
4 2 7 8 10 6 8 10 11 6 8 11 9 6 8 10 10 12 15 17 15 12 15 13 11 8 6 4 5 3 5 4 4 5 7 7 6 6 6 4 4 4 3 2 3 1 2 3 3
9 7 10 10 6 5 2 7 12 11 8 16 15 19 20 7 11 11 14 17 18 14 14 14 11 9 7 6 3 4 6 3 5 5 5 6 6 6 5 5 4 5 3 4 3 2 2 1 2
4 6 3 5 3 3 6 5 4 3 8 11 20 25 19 19 17 13 14 19 17 16 16 15 13 12 7 10 8 5 5 4 3 3 3 4 7 6 7 6 5 5 4 3 3 2 3 1 2
3 4 6 3 6 2 5 1 5 5 9 6 20 20 15 12 14 11 9 11 17 14 14 14 14 12 10 10 10 13 5 6 3 4 4 4 6 6 6 6 6 5 3 5 3 3 3 3 4
7 7 2 2 3 7 4 4 6 1 12 13 6 8 10 15 17 13 10 10 11 12 10 10 13 9 9 9 10 10 9 7 4 4 7 6 5 6 6 6 6 5 4 5 6 6 6 4 3
2 2 3 3 3 3 8 6 5 11 19 9 3 7 8 13 10 11 9 12 9 6 8 12 13 8 9 9 8 12 14 9 6 5 5 3 3 3 5 5 5 4 5 4 5 5 6 4 3
1 3 4 5 6 4 13 4 11 13 15 13 12 8 4 10 12 12 13 12 13 10 10 11 12 10 11 11 9 9 9 9 9 6 4 4 2 2 3 3 4 3 2 3 4 4 3 2 1
3 7 6 5 1 5 4 4 9 15 19 14 12 7 5 8 10 13 14 12 12 12 12 11 12 11 11 9 8 7 8 5 5 5 4 3 2 2 3 3 5 5 2 4 4 1 2 0 1
3 1 6 8 5 3 5 10 6 9 7 6 8 6 7 8 8 13 9 14 14 13 9 10 12 9 10 9 7 7 6 7 6 7 6 4 4 3 4 4 4 3 4 1 3 1 4 2 3
4 3 5 3 6 4 4 4 1 4 6 12 7 8 9 9 9 8 11 12 12 12 8 9 9 12 9 8 7 6 6 6 6 6 6 5 5 3 2 3 3 4 4 3 3 2 3 1 0
1 3 3 4 6 6 1 6 3 5 3 11 13 14 14 13 12 11 13 13 14 13 11 9 9 11 9 8 7 7 6 6 6 6 5 5 4 2 1 3 3 4 5 4 3 3 3 6 4
6 4 6 7 5 2 5 7 3 6 3 5 8 13 14 15 14 13 15 15 14 14 13 12 10 13 11 9 7 7 6 6 6 5 5 5 4 2 2 2 3 5 4 2 2 3 1 4 4
Wind_Direction
203 217 217 5 42 113 254 254 304 245 28 59 58 76 92 48 40 139 134 130 137 138 147 141 128 123 118 115 109 105 104 102 102 101 98 97 91 87 84 81 80 80 79 75 70 62 52 40 28
196 228 286 260 135 284 275 209 90 70 96 50 53 70 54 61 70 117 134 148 144 132 141 143 126 123 121 117 111 109 106 105 103 103 103 98 96 93 85 83 80 81 80 74 66 58 47 33 15
312 212 114 156 217 212 242 182 133 113 59 71 71 45 58 72 124 153 130 143 129 129 126 134 123 124 122 113 110 110 110 106 106 106 103 101 99 94 90 88 89 87 82 76 70 59 46 27 11
225 340 329 127 258 250 241 358 104 91 14 39 34 73 81 4 95 110 115 133 126 122 131 129 124 122 116 112 112 111 107 105 106 104 102 102 100 98 93 90 87 84 80 73 64 56 38 20 9
257 265 231 251 261 264 183 142 212 117 128 131 129 105 71 57 84 96 104 88 104 88 92 100 106 109 104 108 112 111 108 111 108 104 101 103 103 101 98 94 93 90 83 73 63 42 25 13 357
309 136 339 243 262 278 39 53 83 86 138 172 105 106 66 81 74 83 99 99 77 92 73 74 90 101 93 112 108 112 115 110 109 109 113 113 110 111 110 106 102 98 87 75 58 32 18 3 351
213 15 265 296 293 33 74 159 89 98 116 354 34 83 102 67 95 95 94 99 97 79 73 34 73 106 127 140 125 126 116 115 118 119 123 125 127 126 120 118 113 107 107 86 57 337 1 8 350
192 132 292 283 301 109 337 286 122 144 150 103 118 156 144 142 104 94 95 88 94 96 80 50 95 133 173 134 127 121 127 126 131 133 137 140 137 136 137 133 122 124 122 132 253 330 13 22 329
314 248 291 324 34 256 276 115 280 98 96 53 10 21 121 131 105 104 108 108 103 100 116 146 155 175 141 133 151 142 137 141 144 140 141 132 128 156 153 150 147 161 178 180 238 319 359 11 33
164 96 238 220 215 165 165 327 40 118 88 45 64 38 126 132 127 126 140 140 126 139 171 171 197 178 152 154 159 149 143 152 140 144 164 152 174 182 165 98 137 340 342 289 264 314 352 28 26
257 228 166 227 182 110 77 349 129 56 72 145 142 156 195 166 126 133 135 139 149 157 168 187 181 165 175 154 149 156 163 169 170 156 178 139 105 88 73 73 50 5 352 358 35 36 44 48 57
227 236 230 217 168 86 112 233 311 221 213 179 156 167 185 142 136 153 159 154 165 180 170 158 158 177 180 161 169 165 155 145 110 74 99 96 86 71 75 68 18 35 37 54 47 53 48 37 41
193 240 256 202 137 162 140 196 196 143 164 134 139 163 168 138 138 163 171 166 154 148 151 157 151 157 133 125 120 110 88 92 118 96 82 97 90 79 55 36 43 46 32 53 49 52 39 31 25
208 228 231 231 106 128 140 173 103 241 177 142 136 195 145 142 153 147 149 144 149 145 135 136 130 119 129 112 103 92 99 102 77 68 73 65 79 89 90 74 69 51 55 58 64 46 28 19 23
236 87 88 77 117 22 107 46 134 169 179 183 195 201 149 158 141 152 143 144 137 133 134 144 130 126 113 108 108 109 85 78 77 83 92 95 100 109 108 88 67 50 28 50 53 42 49 27 15
342 41 46 302 145 232 112 170 160 156 152 153 144 138 144 143 124 140 140 136 134 133 142 146 133 112 102 106 96 87 100 91 90 92 101 108 104 101 101 100 78 34 26 33 56 48 24 20 19
300 148 112 67 267 102 125 156 154 161 152 154 147 136 131 129 134 139 138 135 138 139 151 136 127 121 123 111 112 111 109 106 112 110 105 101 75 68 80 82 62 42 41 58 37 12 67 3 5
285 138 177 218 248 185 166 154 162 150 119 99 77 12 148 155 153 149 140 143 142 150 141 132 132 132 125 115 132 114 124 104 119 98 83 86 92 79 68 69 53 52 59 28 21 20 356 69 245
305 226 205 234 246 163 165 153 146 146 114 146 86 26 295 168 159 160 143 150 144 148 148 138 143 158 135 157 133 143 128 131 99 95 105 93 91 78 74 57 37 40 50 16 23 78 19 321 359
312 298 281 254 183 111 73 183 152 162 176 172 146 159 231 159 160 166 144 154 158 151 156 147 158 171 178 169 152 147 145 132 132 120 121 114 94 72 73 50 36 23 6 8 15 36 327 349 31
288 263 335 94 83 76 99 41 16 251 192 183 179 189 202 161 173 175 158 157 163 161 164 162 169 186 163 138 130 107 89 78 89 104 89 80 86 80 80 73 61 34 30 3 333 344 106 180 350
179 241 348 44 67 242 86 178 333 324 327 331 173 189 180 172 167 164 155 148 162 167 166 162 174 136 145 145 137 148 145 133 126 138 131 102 87 78 83 80 61 42 9 346 303 2 45 98 60
218 206 235 139 182 89 295 81 283 134 237 270 273 190 187 170 164 162 153 137 159 155 152 158 135 128 131 125 129 127 122 123 139 121 104 93 83 86 80 71 48 25 357 342 63 62 67 68 102
217 29 296 326 152 97 229 160 238 189 217 227 175 216 172 166 146 146 134 130 141 125 128 141 131 114 109 110 116 123 132 135 119 118 113 108 104 84 70 56 54 15 27 77 89 82 67 64 73
76 45 6 3 13 227 37 39 259 225 218 217 216 192 173 153 147 141 146 147 150 142 141 136 122 125 118 112 116 126 132 126 128 138 134 115 104 81 55 61 42 9 114 112 102 88 71 108 115
195 152 163 168 131 286 290 227 239 214 197 195 210 204 174 153 138 157 166 159 136 143 146 132 135 134 130 125 132 130 130 135 131 128 122 111 88 77 45 54 39 0 242 118 126 101 313 242 266
299 62 177 106 5 66 253 249 336 83 156 197 202 158 199 151 140 158 143 140 143 149 151 145 142 139 139 138 134 139 136 129 132 126 105 106 91 60 23 18 16 353 339 189 162 238 266 199 235
153 264 26 18 134 241 284 299 189 82 171 196 191 207 179 150 148 150 152 152 150 154 155 147 143 147 147 140 136 138 134 133 129 122 122 124 113 92 356 12 350 333 346 345 292 323 252 273 117
308 275 212 138 131 166 165 276 187 90 95 169 201 188 176 170 170 162 162 165 164 164 163 160 144 147 145 137 139 137 152 143 138 138 143 140 121 124 45 11 323 311 298 335 61 22 11 86 90
194 214 168 123 257 189 148 267 209 143 141 141 174 187 184 177 176 170 167 167 170 170 169 168 149 153 150 148 143 155 158 158 158 162 152 136 153 121 95 314 293 285 298 165 11 313 346 138 121